Regional Weather Roundup
Issued by NWS Cleveland, OH

Home | Current Version | Previous Version | Graphics & Text | Print | Product List | Glossary On
Versions: 1 2 3 4 5 6 7 8 9 10 11 12 13 14 15 16 17 18 19 20 21 22 23 24 25 26 27 28 29 30 31 32 33 34 35 36 37 38 39 40 41 42 43 44 45 46 47 48 49 50
000
ASUS41 KCLE 260412
RWRCLE
OHIO REGIONAL WEATHER ROUNDUP
NATIONAL WEATHER SERVICE WILMINGTON, OH
1200 AM EDT SAT MAY 26 2018

NOTE: "FAIR" INDICATES FEW OR NO CLOUDS BELOW 12,000 FEET WITH NO
SIGNIFICANT WEATHER AND/OR OBSTRUCTIONS TO VISIBILITY.

OHZ001>008-015>018-024>027-034-035-043-044-260500-
   NORTHWEST OHIO

CITY           SKY/WX    TMP DP  RH WIND       PRES   REMARKS
DEFIANCE       FAIR      67  58  72 CALM      29.82S
FINDLAY        FAIR      70  54  56 S9        29.83S
TOLEDO EXPRESS FAIR      64  56  75 CALM      29.81S
TOLEDO EXEC    FAIR      70  53  54 S6        29.82S
LIMA           FAIR      73  54  51 S9        29.85S
$$

OHZ009>014-019>023-028>033-038-089-260500-
   NORTHEAST OHIO

CITY           SKY/WX    TMP DP  RH WIND       PRES   REMARKS
CLE-HOPKINS    FAIR      69  54  58 S3        29.85F
CLE-LAKEFRONT  FAIR      74  52  46 SE8       29.82F
CUY CO. ARPT   NOT AVBL
LORAIN-ELYRIA  FAIR      67  52  58 CALM      29.84F
ASHTABULA      FAIR      58  57  97 CALM      29.86F
AKRON-CANTON   FAIR      72  53  51 S5        29.88F
WOOSTER        FAIR      63  57  81 CALM      29.88S
MANSFIELD      FAIR      67  56  67 S5        29.87F
YOUNGSTOWN     FAIR      67  54  63 S6        29.87F
$$

OHZ042-051>053-060>062-070>072-077>081-260500-
  SOUTHWEST OHIO

CITY           SKY/WX    TMP DP  RH WIND       PRES   REMARKS
CINC-COVINGTON MOCLDY    69  61  75 S5        29.88S
CINC-LUNKEN    FAIR      67  65  93 CALM      29.87F
HAMILTON       FAIR      67  63  87 CALM      29.87F
DAYTON         FAIR      72  59  63 SW9       29.88S
WRIGHT-PAT AFB CLEAR     69  58  68 CALM      29.88R
DAYTON GENERAL FAIR      72  56  57 S6        29.87F
WILMINGTON     FAIR      67  60  78 CALM      29.89S
$$

OHZ036-037-039>041-045>050-054>059-063>069-073>076-082>088-260500-
  CENTRAL AND SOUTHEAST OHIO

CITY           SKY/WX    TMP DP  RH WIND       PRES   REMARKS
COLUMBUS       FAIR      74  55  51 S3        29.87R
OSU AIRPORT    FAIR      71  54  54 S6        29.87S
BOLTON FIELD   FAIR      65  58  77 SW5       29.89S
RICKENBACK AFB FAIR      68  59  72 MISG      29.88R
NEWARK         FAIR      65  62  90 CALM      29.88R
MARION         FAIR      67  52  58 SW6       29.87S
LANCASTER      FAIR      64  61  90 CALM      29.89R
ZANESVILLE     FAIR      70  65  84 SW3       29.89R
NEW PHILLY     FAIR      67  61  81 SE3       29.88S
$$



USA.gov is the U.S. government's official web portal to all federal, state and local government web resources and services.